Location: Carnetin
(48.9010°N, 2.7059°E)
Time: 07:09:00
(UTC+00:00)

Cosmos 1544 Rocket - Visible Passes

Search period start: 21 May 2022 00:00
Search period end: 31 May 2022 00:00
Orbit: 605 x 629 km, 82.5° (Epoch: 20 May)

Date Brightness Start Highest point End Pass type
(mag) Time Alt. Az. Time Alt. Az. Time Alt. Az.
21 May 5.5 01:19:48 10° N 01:23:37 27° ENE 01:27:24 10° SE visible
21 May 4.3 02:57:29 10° NNW 03:01:30 34° W 03:05:28 10° SSW visible
22 May 4.6 01:36:17 10° N 01:40:34 45° ENE 01:44:47 10° SSE visible
22 May 5.0 03:14:47 10° NW 03:18:03 21° W 03:21:19 10° SW visible
23 May 6.5 00:17:53 10° NE 00:18:44 10° ENE 00:19:35 10° ENE visible
23 May 3.6 01:52:56 10° N 01:57:24 79° E 02:01:20 13° SSE visible
24 May 6.1 00:32:57 10° NNE 00:35:53 17° ENE 00:38:47 10° ESE visible
24 May 3.7 02:09:46 10° NNW 02:14:09 60° W 02:17:37 16° S visible
25 May 5.4 00:49:07 10° NNE 00:52:55 27° ENE 00:56:40 10° SE visible
25 May 4.4 02:26:48 10° NNW 02:30:49 34° W 02:33:55 15° SSW visible
26 May 4.5 01:05:35 10° N 01:09:51 45° ENE 01:13:09 16° SE visible
26 May 5.1 02:44:06 10° NW 02:47:22 20° W 02:50:15 11° SW visible
26 May 6.4 23:47:17 10° NE 23:48:02 10° ENE 23:48:47 10° ENE visible
27 May 3.6 01:22:14 10° N 01:26:42 79° E 01:29:32 22° SSE visible
27 May 5.6 03:02:07 10° WNW 03:03:50 12° W 03:05:33 10° WSW visible
28 May 6.0 00:02:17 10° NNE 00:05:10 17° ENE 00:08:02 10° ESE visible
28 May 3.7 01:39:04 10° NNW 01:43:26 60° W 01:45:55 24° SSW visible
29 May 5.3 00:18:25 10° NNE 00:22:12 27° ENE 00:25:14 14° ESE visible
29 May 4.4 01:56:05 10° NNW 02:00:05 34° W 02:02:20 21° SW visible
30 May 4.4 00:34:53 10° N 00:39:08 45° ENE 00:41:40 21° SE visible
30 May 5.1 02:13:23 10° NW 02:16:39 20° W 02:18:46 15° WSW visible
30 May 6.3 23:16:41 10° NE 23:17:18 10° ENE 23:17:55 10° ENE visible
